This is the latest recevied weather packets stored in our database for station/object AJ5AG. If no packets are shown the sender has not sent any weather packets the latest 10 day(s).
| Time | Temp. | Humidity | Pressure | Rain* | Wind** | Luminosity | Snow |
|---|---|---|---|---|---|---|---|
| 1777842499 | 26.11° C | 43% | 1021.6 hPa | 0 mm | - | 134 W/m² | - |
| 1777842197 | 26.11° C | 39% | 1021.7 hPa | 0 mm | - | 132 W/m² | - |
| 1777841891 | 26.67° C | 38% | 1021.6 hPa | 0 mm | - | 103 W/m² | - |
| 1777841588 | 26.67° C | 36% | 1021.7 hPa | 0 mm | - | 153 W/m² | - |
| 1777841285 | 26.11° C | 41% | 1021.6 hPa | 0 mm | - | 136 W/m² | - |
| 1777840983 | 25.56° C | 41% | 1022 hPa | 0 mm | - | 186 W/m² | - |
| 1777840680 | 25° C | 48% | 1022.1 hPa | 0 mm | - | 122 W/m² | - |
| 1777840377 | 25° C | 38% | 1022.2 hPa | 0 mm | - | 86 W/m² | - |
| 1777840074 | 25.56° C | 43% | 1022.3 hPa | 0 mm | - | 73 W/m² | - |
| 1777839772 | 26.11° C | 39% | 1022.4 hPa | 0 mm | - | 80 W/m² | - |
| 1777839469 | 26.67° C | 37% | 1022.4 hPa | 0 mm | - | 92 W/m² | - |
| 1777839167 | 26.67° C | 41% | 1022.7 hPa | 0 mm | - | 192 W/m² | - |
| 1777838864 | 27.22° C | 39% | 1022.7 hPa | 0 mm | - | 192 W/m² | - |
| 1777838560 | 27.22° C | 37% | 1022.8 hPa | 0 mm | - | 806 W/m² | - |
| 1777838257 | 27.22° C | 35% | 1022.8 hPa | 0 mm | - | 190 W/m² | - |
| 1777837953 | 26.67° C | 35% | 1022.7 hPa | 0 mm | - | 778 W/m² | - |
| 1777837651 | 26.11° C | 38% | 1023.1 hPa | 0 mm | - | 814 W/m² | - |
| 1777837346 | 26.11° C | 38% | 1023.1 hPa | 0 mm | - | 840 W/m² | - |
| 1777837043 | 26.11° C | 37% | 1023 hPa | 0 mm | - | 863 W/m² | - |
| 1777836739 | 26.67° C | 38% | 1023.1 hPa | 0 mm | - | 154 W/m² | - |
| 1777836435 | 27.22° C | 38% | 1023.3 hPa | 0 mm | - | 153 W/m² | - |
| 1777836130 | 27.22° C | 37% | 1023.3 hPa | 0 mm | - | 853 W/m² | - |
| 1777835827 | 27.22° C | 36% | 1023.2 hPa | 0 mm | - | 707 W/m² | - |
| 1777835524 | 27.22° C | 39% | 1023.5 hPa | 0 mm | - | 873 W/m² | - |
| 1777835221 | 27.78° C | 39% | 1023.5 hPa | 0 mm | - | 858 W/m² | - |
* Rain latest hour (hover to see other rain measurements)
** Current wind speed in m/s (hover to see current wind gust speed)